Weather in Saveyevo

Russia / Smolensk Oblast     54°13′41″N   33°19′55″E
temp.,
°C
wind,
m/s
gust,
m/s
humid.,
%
clouds,
%
prec.,
mm/h
press.,
hPa
HPBL,
m
6 march, sat
sat600:00−6nnw389496 0.1 1017494
03:00−6nnw388896 0.1 1019467
06:00−7wnw259367 0.0 1019194
09:00−8wnw368545 0.0 1020266
12:00−4nw46670 0.0 10201077
15:00−4wnw576523 0.1 10191355
18:00−5w387771 0.1 1018359
21:00−7wsw4118250 0.1 1018345
7 march, sun
sun700:00−7wsw5137933 0.0 1015505
03:00−6wsw7159167 0.3 1011746
06:00−4sw81680100 0.1 10071020
09:00−3wsw91890100 0.8 10011129
12:000wsw101890100 1.6 9981421
15:00−4nw61373100 4.8 9991162
18:00−4w7148572 0.1 10011371
21:00−6wsw5157353 0.3 1000913
8 march, mon
mon800:00−5w716800 0.0 9991158
03:00−9wnw7157333 0.3 10011032
06:00−9wnw7138362 0.0 10041007
09:00−9wnw5118381 0.1 1007671
12:00−6wnw6107860 0.0 1008926
15:00−5wnw587880 0.1 10091031
18:00−6wnw4884100 0.1 1010714
21:00−8nnw2793100 0.2 1013370
9 march, tue
tue900:00−11nnw259696 0.0 1014153
03:00−11nnw259498 0.0 1015250
06:00−11nnw2694100 0.0 1017295
09:00−11nnw378896 0.1 1018485
12:00−10nnw367691 0.0 1020716
15:00−8nnw357179 0.0 1020892
18:00−9wnw2582100 0.0 1021402
21:00−12w249388 0.0 102390
10 march, wed
wed1000:00−12wsw259079 0.0 1023146
03:00−10sw4109190 0.3 1021462
06:00−8wsw51193100 1.5 1020675
09:00−7w51291100 2.0 1020663
12:00−4wnw5988100 0.7 1021828
15:00−6ene4692100 1.9 1021386
18:00−9e3693100 0.7 1022379
21:00−11e4893100 1.1 1024351